This is the latest recevied weather packets stored in our database for station/object KE8WMS. If no packets are shown the sender has not sent any weather packets the latest 10 day(s).
| Time | Temp. | Humidity | Pressure | Rain* | Wind** | Luminosity | Snow |
|---|---|---|---|---|---|---|---|
| 1777395640 | 21.11° C | 75% | 1006.8 hPa | 0 mm | - | 250 W/m² | - |
| 1777395337 | 19.44° C | 80% | 1007 hPa | 0 mm | - | 861 W/m² | - |
| 1777395035 | 20° C | 77% | 1007 hPa | 0 mm | - | 225 W/m² | - |
| 1777394731 | 20° C | 79% | 1007.5 hPa | 0 mm | - | 915 W/m² | - |
| 1777394428 | 20.56° C | 79% | 1007.6 hPa | 0 mm | - | 853 W/m² | - |
| 1777394124 | 20° C | 78% | 1007.4 hPa | 0 mm | - | 787 W/m² | - |
| 1777393820 | 20° C | 80% | 1007.3 hPa | 0 mm | - | 897 W/m² | - |
| 1777393519 | 20° C | 81% | 1007.4 hPa | 0 mm | - | 781 W/m² | - |
| 1777393215 | 20° C | 80% | 1007.6 hPa | 0 mm | - | 905 W/m² | - |
| 1777392912 | 18.89° C | 81% | 1007.7 hPa | 0 mm | - | 358 W/m² | - |
| 1777392607 | 19.44° C | 80% | 1007.5 hPa | 0 mm | - | 244 W/m² | - |
| 1777392304 | 18.33° C | 83% | 1007.6 hPa | 0 mm | - | 961 W/m² | - |
| 1777392003 | 18.33° C | 82% | 1007.7 hPa | 0 mm | - | 199 W/m² | - |
| 1777391698 | 18.89° C | 82% | 1008.1 hPa | 0 mm | - | 288 W/m² | - |
| 1777391395 | 18.33° C | 82% | 1008 hPa | 0 mm | - | 433 W/m² | - |
| 1777391092 | 18.89° C | 82% | 1007.6 hPa | 0 mm | - | 191 W/m² | - |
| 1777390788 | 18.33° C | 83% | 1007.5 hPa | 0 mm | - | 925 W/m² | - |
| 1777390485 | 18.89° C | 81% | 1007.6 hPa | 0 mm | - | 249 W/m² | - |
| 1777390181 | 18.89° C | 81% | 1007.4 hPa | 0 mm | - | 434 W/m² | - |
| 1777389878 | 18.89° C | 79% | 1007.5 hPa | 0 mm | - | 339 W/m² | - |
| 1777389574 | 18.33° C | 81% | 1007.1 hPa | 0 mm | - | 206 W/m² | - |
| 1777389271 | 18.33° C | 81% | 1007.4 hPa | 0 mm | - | 265 W/m² | - |
| 1777388969 | 18.89° C | 80% | 1007.4 hPa | 0 mm | - | 246 W/m² | - |
| 1777388666 | 17.78° C | 82% | 1007.2 hPa | 0 mm | - | 670 W/m² | - |
| 1777388362 | 17.22° C | 83% | 1007.7 hPa | 0 mm | - | 853 W/m² | - |
* Rain latest hour (hover to see other rain measurements)
** Current wind speed in m/s (hover to see current wind gust speed)